Weather in Mayskiy

Russia / Novosibirsk Oblast     54°11′18″N   83°21′48″E
temp.,
°C
wind,
m/s
gust,
m/s
humid.,
%
clouds,
%
prec.,
mm/h
press.,
hPa
HPBL,
m
3 march, wed
wed301:00−17ssw11100100 0.1 101720
04:00−17w119999 0.1 101720
07:00−18ssw229897 0.1 101820
10:00−16sw119697 0.1 101966
13:00−12sw239195 0.1 1019305
16:00−10sw4691100 0.1 1021440
19:00−13ssw4896100 0.1 1022168
22:00−14ssw5119782 0.0 1024307
4 march, thu
thu401:00−15ssw6129791 0.1 1024317
04:00−15s71496100 0.0 1023325
07:00−14s71493100 0.1 1023414
10:00−10ssw81588100 0.0 1022583
13:00−7ssw91490100 0.1 1022641
16:00−5ssw81489100 0.0 1020719
19:00−5ssw81586100 0.1 1019655
22:00−8ssw81589100 0.0 1018492
5 march, fri
fri501:00−9s7159092 0.0 1017414
04:00−8s61586100 0.0 1015469
07:00−9s71683100 0.0 1014512
10:00−6ssw81592100 0.1 1013687
13:00−4sw91594100 0.5 1014842
16:00−2wsw101579100 0.4 10161267
19:00−5sw81586100 0.4 1019744
22:00−6sw81688100 0.0 1019959
6 march, sat
sat601:00−6sw81592100 0.3 1020853
04:00−6sw71492100 0.2 1020751
07:00−6sw81594100 0.9 1020718
10:00−6ssw91792100 0.7 1019792
13:00−5ssw101686100 0.8 1018771
16:00−4ssw101782100 0.0 1016836
19:00−5ssw91783100 0.0 1015858
22:00−6sw81786100 0.0 1014770
7 march, sun
sun701:00−5sw91692100 0.4 1014780
04:00−5sw71593100 0.3 1014658
07:00−5sw71393100 0.5 1016615
10:00−5sw61192100 0.2 1018811
13:00−4sw6986100 0.2 1020749
16:00−3sw4885100 0.0 1019668
19:00−4s489499 0.0 1018373
22:00−4s71194100 0.1 1016484